• MPC Preparation (Info)

  • MPEC 2022-V38 : 2022 US27

    The following Minor Planet Electronic Circular may be linked-to from your own Web pages, but must not otherwise be redistributed electronically.

    A form allowing access to any MPEC is at the bottom of this page.


    Read MPEC 2022-V37 Read MPEC 2022-V39


    M.P.E.C. 2022-V38                              Issued 2022 November 2, 09:13 UT
    
         The Minor Planet Electronic Circulars contain information on unusual
             minor planets, routine data on comets and natural satellites,
             and occasional editorial announcements.  They are published
        on behalf of Division F of the International Astronomical Union by the
              Minor Planet Center, Smithsonian Astrophysical Observatory,
                              Cambridge, MA 02138, U.S.A.
    			  
                 Prepared using the Tamkin Foundation Computer Network
    
                                  MPC@CFA.HARVARD.EDU
                URL https://www.minorplanetcenter.net/    ISSN 1523-6714
    
                                    2022 US27                                
    
    
    Observations:
         K22U27S  C2022 10 21.50470703 23 47.859-02 47 21.49         21.39GVEV038F51
         K22U27S  C2022 10 21.51914303 23 47.061-02 48 09.34         22.07GVEV038F51
         K22U27S  C2022 10 21.53143703 23 46.387-02 48 50.04         21.87GVEV038F51
         K22U27S  C2022 10 21.54367603 23 45.739-02 49 30.52         21.89GVEV038F51
         K22U27S* C2022 10 31.42756503 15 25.262-11 07 44.68         22.12wUEV038F51
         K22U27S  C2022 10 31.43914903 15 24.362-11 08 15.63         21.69wUEV038F51
         K22U27S  C2022 10 31.45301903 15 23.286-11 08 52.58         22.20wUEV038F51
         K22U27S  C2022 10 31.53958703 15 16.615-11 12 40.47         21.71GVEV038F51
         K22U27S  C2022 10 31.54023003 15 16.537-11 12 41.95         22.28GVEV038F51
         K22U27S 3C2022 11 01.42797803 14 23.927-11 51 10.57         22.07GVEV038T14
         K22U27S 3C2022 11 01.42895603 14 23.850-11 51 13.09         22.15GVEV038T14
         K22U27S 3C2022 11 01.42994403 14 23.772-11 51 15.61         21.94GVEV038T14
    
    Observer details:
    F51 Pan-STARRS 1, Haleakala.  Observers J. Bulger, K. Chambers, T. Lowe, A.
        Schultz, I. Smith.  Measurers S. Chastel, J. Fairlamb, M. Huber, Y.
        Ramanjooloo, R. Wainscoat, R. Weryk, K. Chambers, T. de Boer, H. Gao,
        C.-C. Lin, E. Magnier.  1.8-m Ritchey-Chretien + CCD.
    T14 Canada-France-Hawaii Telescope, Maunakea.  Observers R. Wainscoat, A.
        Acohido, E. Bertin.  Measurers R. Weryk, R. Wainscoat.  3.6-m Canada-
        France-Hawaii Telescope + CCD.
    
    Orbital elements:
    2022 US27                                                Earth MOID = 0.1592 AU
    Epoch 2022 Aug. 9.0 TT = JDT 2459800.5                  MPC                     
    M   5.75325              (2000.0)            P               Q                  
    n   0.75591005     Peri.  133.63722     +0.82718998     +0.56048884             
    a   1.1935006      Node   192.45267     -0.55409030     +0.80170309             
    e   0.0366406      Incl.   10.72065     -0.09349158     +0.20766416             
    P   1.30           H   24.16          G   0.15           U   7                  
    Residuals in seconds of arc
    221021 F51  0.2+  0.0     221031 F51  0.1+  0.1+    221031 F51  0.4-  0.2+
    221021 F51  0.0   0.0     221031 F51  0.0   0.0     221101 T14  0.0   0.0
    221021 F51  0.1-  0.0     221031 F51  0.0   0.2-    221101 T14  0.0   0.0
    221021 F51  0.1+  0.0     221031 F51  0.0   0.0     221101 T14  0.0   0.0
    
    Ephemeris:
    2022 US27                a,e,i = 1.19, 0.04, 11                  q = 1.1498
    Date    TT    R. A. (2000) Decl.     Delta      r    Elong.  Phase     V
    2022 10 03    03 23 41.3 +14 12 58   0.2117  1.1648   137.1    35.8    22.6
    ...
    2022 10 18    03 25 36.0 +00 29 36   0.1980  1.1720   149.9    25.3    22.1
    ...
    2022 10 26    03 20 29.7 -06 47 15   0.2010  1.1761   152.4    23.0    22.1
    ...
    2022 11 01    03 14 49.9 -11 32 23   0.2081  1.1794   151.2    23.9    22.2
    2022 11 02    03 13 48.1 -12 14 55   0.2097  1.1800   150.8    24.2    22.3
    2022 11 03    03 12 45.4 -12 55 54   0.2114  1.1805   150.3    24.6    22.3
    ...
    2022 11 09    03 06 23.9 -16 27 27   0.2235  1.1839   146.7    27.3    22.5
    ...
    2022 11 17    02 58 33.4 -19 36 51   0.2443  1.1885   140.9    31.7    22.8
    ...
    2022 12 02    02 49 59.1 -21 21 43   0.2939  1.1971   130.2    39.0    23.4
    
    A. U. Tomatic                (C) Copyright 2022 MPC           M.P.E.C. 2022-V38
    


    Read MPEC 2022-V37 Read MPEC 2022-V39


    MPEC number:

    Enter an MPEC number in one of the following forms:

    • 1997-B01 (the full form)
    • J97B01 (the packed version of the full form)
    • B01 (the abbreviated form)